Torna al catalogo

STARLINK-4536

AttivoComunicazioniVLEO
NORAD 53783·PAYLOAD·🇺🇸 United States

Lanciato Sep 11, 2022 da Cape Canaveral Space Force Station

Loading…

Prossimi Passaggi (prossime 24 ore)

TLE

AggiornatoSource: CelesTrak SupGP

Epoca: Sep 15, 2026, 01:33 UTC

1 53783C 22111L   26258.06506944  .00683630  00000+0  20663-1 0  2581
2 53783  53.1606 141.4233 0001349  80.0907 259.7067 15.33332172    15

Traccia STARLINK-4536 in tempo reale con AllMySat

Download on the App Store